CW9773 Weather Reports


time (UTC)temp
C
wind
direction
speed
KPH
gust
KPH
rain 1hr
cm
rain 24hr
cm
rain mn
cm
humidity
%
barometer
mb
20260505063028 10 121 0.0 0.0 0.00 0.00 0.00 74 1012.3
20260505061557 10 121 0.0 0.0 0.00 0.00 0.00 74 1012.4
20260505060025 11 119 0.0 0.0 0.00 0.00 0.00 71 1012.5
20260505054553 11 119 0.0 0.0 0.00 0.00 0.00 69 1012.5
20260505053021 12 119 0.0 0.0 0.00 0.00 0.00 67 1012.6
20260505051542 12 119 0.0 0.0 0.00 0.00 0.00 66 1012.5
20260505041522 13 173 0.0 0.0 0.00 0.00 0.00 61 1012.6
20260505040045 13 173 0.0 0.0 0.00 0.00 0.00 61 1012.6
20260505034600 13 173 0.0 0.0 0.00 0.00 0.00 60 1012.8
20260505033040 14 173 0.0 0.0 0.00 0.00 0.00 61 1013.1
20260505031600 14 173 0.0 0.0 0.00 0.00 0.00 60 1013.1
20260505030028 15 173 0.0 0.0 0.00 0.00 0.00 59 1013.1
20260505024552 15 115 0.0 0.0 0.00 0.00 0.00 59 1013.2
20260505023027 15 115 0.0 0.0 0.00 0.00 0.00 59 1013.2
20260505021559 15 161 0.0 0.0 0.00 0.00 0.00 58 1013.1
20260505020027 15 161 0.0 0.0 0.00 0.00 0.00 57 1013.0
20260505014547 15 161 0.0 0.0 0.00 0.00 0.00 55 1012.9
20260505013013 15 161 0.0 0.0 0.00 0.00 0.00 53 1012.7
20260505011551 16 161 0.0 0.0 0.00 0.00 0.00 52 1012.8
20260505010011 16 161 0.0 0.0 0.00 0.00 0.00 50 1012.6
20260505004540 16 161 0.0 0.0 0.00 0.00 0.00 49 1012.5
20260505003019 16 161 0.0 0.0 0.00 0.00 0.00 48 1012.4
20260505001541 17 161 0.0 0.0 0.00 0.00 0.00 47 1012.3
20260505000018 17 167 0.0 0.0 0.00 0.00 0.00 46 1012.4
20260504234532 17 159 0.0 0.0 0.00 0.00 0.00 45 1012.1
20260504233106 18 165 0.0 0.0 0.00 0.00 0.00 45 1012.1
20260504231532 18 192 0.0 0.0 0.00 0.00 0.00 44 1011.9
20260504230003 18 166 0.0 0.0 0.00 0.00 0.00 45 1011.8
20260504224537 19 148 0.0 0.0 0.00 0.00 0.00 44 1011.9
20260504223003 19 173 0.0 0.0 0.00 0.00 0.00 43 1011.9
20260504221538 20 171 0.0 0.0 0.00 0.00 0.00 43 1012.0
20260504220121 20 155 0.0 0.0 0.00 0.00 0.00 43 1012.0
20260504214531 21 158 0.0 0.0 0.00 0.00 0.00 42 1011.9
20260504213103 21 171 0.0 6.4 0.00 0.00 0.00 42 1012.0
20260504211528 21 164 0.0 0.0 0.00 0.00 0.00 43 1011.8
20260504210051 21 169 0.0 0.0 0.00 0.00 0.00 43 1011.8
20260504204528 22 154 0.0 0.0 0.00 0.00 0.00 42 1011.9
20260504203053 23 225 0.0 0.0 0.00 0.00 0.00 40 1012.0
20260504201522 24 193 0.0 0.0 0.00 0.00 0.00 41 1012.1
20260504200054 25 182 0.0 0.0 0.00 0.00 0.00 37 1012.4
20260504194520 26 242 0.0 1.6 0.00 0.00 0.00 37 1012.6
20260504193049 26 196 0.0 0.0 0.00 0.00 0.00 35 1012.6
20260504191532 27 173 0.0 0.0 0.00 0.00 0.00 37 1012.9
20260504190044 27 235 0.0 0.0 0.00 0.00 0.00 36 1013.1
20260504184614 26 293 0.0 0.0 0.00 0.00 0.00 36 1013.3
20260504183037 26 293 0.0 0.0 0.00 0.00 0.00 39 1013.5
20260504181548 26 197 0.0 11.3 0.00 0.00 0.00 37 1013.6
20260504180017 25 290 0.0 0.0 0.00 0.00 0.00 39 1013.6
20260504174538 24 239 0.0 0.0 0.00 0.00 0.00 42 1014.0
20260504173104 24 206 0.0 0.0 0.00 0.00 0.00 37 1014.1
20260504171528 24 207 0.0 0.0 0.00 0.00 0.00 39 1014.3
20260504100103 1 243 0.0 0.0 0.00 0.00 0.00 85 1016.1
20260504081511 1 243 0.0 0.0 0.00 0.00 0.00 84 1016.0